Regional Weather Roundup
Issued by NWS New Orleans/Baton Rouge, LA

Home | Current Version | Previous Version | Text Only | Print | Product List | Glossary On
Versions: 1 2 3 4 5 6 7 8 9 10 11 12 13 14 15 16 17 18 19 20 21 22 23 24 25 26 27 28 29 30 31 32 33 34 35 36 37 38 39 40 41 42 43 44 45 46 47 48 49 50
824
ASUS44 KLIX 261701
RWRLIX
NEW ORLEANS REGIONAL WEATHER ROUNDUP
NATIONAL WEATHER SERVICE NEW ORLEANS LA
1100 AM CST MON JAN 26 2015

NOTE: "FAIR" INDICATES FEW OR NO CLOUDS BELOW 12,000 FEET WITH NO
      SIGNIFICANT WEATHER AND/OR OBSTRUCTIONS TO VISIBILITY.
      SKY/WX - SKY CONDITION AND SIGNIFICANT WEATHER.
      TMP - AIR TEMPERATURE.     DP    - DEWPOINT TEMPERATURE.
      RH  - RELATIVE HUMIDITY.   PRES  - PRESSURE.
      HI  - HEAT INDEX.          WCI   - WIND CHILL INDEX.

*  THESE STATIONS ARE NOT NWS OR FAA STATIONS AND ARE NOT UNDER
   NWS QUALITY CONTROL.

LAZ038-040-048-061>063-065>067-069-261800-
SOUTHEAST LOUISIANA

CITY           SKY/WX    TMP DP  RH WIND       PRES   REMARKS
N.O. AUDUBON     N/A     56  39  52 MISG        N/A
N.O. INTL ARPT MOSUNNY   54  35  48 NW16G24   30.14F
N.O. LAKEFRONT SUNNY     55  38  52 NW17      30.14F
N.O. DOWNTOWN*   N/A     52  34  50 N10G18    30.14F
SLIDELL        SUNNY     58  35  42 NW13G23   30.11F
BATON ROUGE    SUNNY     54  34  46 N10       30.17F
BOOTHVILLE     SUNNY     53  39  59 NW10      30.13F
BELLE CHASSE   MOSUNNY   54  34  46 NW13G21   30.13F
BOGALUSA*        N/A     55  37  50 N12G20    30.15S
GALLIANO*      NOT AVBL
NEW ROADS*     NOT AVBL
GONZALES*      NOT AVBL
HAMMOND*       NOT AVBL
HOUMA*         SUNNY     55  36  47 NW14      30.15S
PORT FOURCHON* SUNNY     55  37  50 N8G16     30.18F

$$

MSZ070-080>082-261800-
SOUTHERN MISSISSIPPI

CITY           SKY/WX    TMP DP  RH WIND       PRES   REMARKS
MCCOMB         SUNNY     51  35  54 NW16      30.15F
GULFPORT       SUNNY     55  37  50 NW14G24   30.09F
BILOXI         SUNNY     54  37  52 N14       30.09F
PASCAGOULA     SUNNY     55  37  50 N10G18    30.08F
STENNIS ARPT*  SUNNY     54  32  43 N12       30.11F

$$

COASTAL OBSERVATIONS
LAKE AND NEARSHORE STATIONS

STATION/POSITION TIME  TEMP    WIND        PRES    WAVE
                       AIR SEA DIR/SP/G            HT/PER
                 (UTC) (F)     (DEG/KT/KT) (MB)    (FT/S)
PASCAGOULA       1622   52     310/ 13/ 19 1018.4
WAVELAND YACHT   1622   50     340/ 17/ 23 1018.8
GRAND ISLE       1622   53 56  350/ 13/ 16 1021.4
SOUTHWEST PASS   1622   52 46   10/ 11/ 14 1020.9
NEW CANAL        1622   50 51  350/ 13/ 18 1021.3
SHELL BEACH      1622   49 52  330/ 15/ 18 1020.4

OFFSHORE STATIONS

STATION/POSITION TIME  TEMP    WIND        PRES    WAVE
                       AIR SEA DIR/SP/G            HT/PER
                 (UTC) (F)     (DEG/KT/KT) (MB)    (FT/S)
64 S DAUPHIN ISL 1558   53 70  320/ 17/ 23 1019.4    7/ 9

$$




USA.gov is the U.S. government's official web portal to all federal, state and local government web resources and services.